Miscellaneous Local Product
Issued by NWS North Platte, NE

Home | Current Version | Previous Version | Text Only | Print | Product List | Glossary On
Versions: 1 2 3 4 5 6 7 8 9 10 11 12 13 14 15 16 17 18 19 20 21 22 23 24 25 26 27 28 29 30 31 32 33 34 35 36 37 38 39 40 41 42 43 44 45 46 47 48 49 50
000
AXUS43 KLBF 310810
MISLBF


WESTERN AND NORTH CENTRAL NEBRASKA HOURLY WEATHER ROUNDUP
NATIONAL WEATHER SERVICE NORTH PLATTE NE
300 AM CDT MON AUG 31 2015

NOTE: "FAIR" INDICATES FEW OR NO CLOUDS BELOW 12,000 FEET WITH NO
SIGNIFICANT WEATHER AND/OR OBSTRUCTIONS TO VISIBILITY.

NOTE: STATIONS NOT REPORTING VARIABLES SUCH AS SKY/WEATHER OR
PRESSURE ARE PROVIDED BY THE NEBRASKA DEPARTMENT OF
ROADS...RAWS...AND APRS NETWORKS...AND ARE NOT UNDER
NATIONAL WEATHER SERVICE QUALITY CONTROL.

...OBSERVATIONS IN AND NEAR THE EASTERN PANHANDLE OF NEBRASKA...

CITY           SKY/WX    TMP DP  RH WIND       PRES   REMARKS
PINE RIDGE     CLOUDY    74  48  39 SW10      29.83R
CHADRON        LGT RAIN  73  50  44 CALM      29.82R
ALLIANCE       PTCLDY    66  52  60 S10       29.91S
SIDNEY         CLEAR     67  49  52 S7        29.96F
CRESCENT LAKE    N/A     68  47  47 S8          N/A
BIG SPRINGS      N/A     64  47  55 CALM        N/A
$$

...OBSERVATIONS IN NORTH CENTRAL NEBRASKA...

CITY           SKY/WX    TMP DP  RH WIND       PRES   REMARKS
VALENTINE      CLEAR     71  54  54 SW17G25   29.84S
THEDFORD       CLEAR     68  58  70 S12       29.92S
AINSWORTH      CLEAR     69  59  70 S21       29.87F
O`NEILL        CLEAR     66  65  94 S14       29.90S
ORD            CLEAR     65  62  90 S7        29.92S
BROKEN BOW     CLEAR     66  62  87 S9        29.93F
SPRINGVIEW       N/A     68  60  75 CALM        N/A
SARGENT          N/A     64  62  94 CALM        N/A
CHAMBERS         N/A     64  62  95 S9          N/A
EWING            N/A     66  61  85 S7          N/A
$$

...OBSERVATIONS IN SOUTHWEST NEBRASKA AND FAR NORTHEAST COLORADO...

CITY           SKY/WX    TMP DP  RH WIND       PRES   REMARKS
WRAY           FAIR      71  46  41 S16G25    29.93F
HOLYOKE        FAIR      63  43  48 CALM      29.94S
IMPERIAL       CLEAR     69  45  41 S12       29.93S
OGALLALA       CLEAR     65  45  48 NW3       29.94S
NORTH PLATTE   CLEAR     65  56  72 SE8       29.93S
MCCOOK         CLEAR     65  54  67 MISG      29.94S
LEXINGTON      CLEAR     67  64  89 S15       29.94F
PAXTON           N/A     62  49  63 CALM        N/A
BRADY            N/A     63  58  84 CALM        N/A
CALLAWAY         N/A     63  62  95 S12         N/A
$$

...OBSERVATIONS IN CENTRAL LINCOLN COUNTY AREA...

CITY           SKY/WX    TMP DP  RH WIND       PRES   REMARKS
N.P. AIRPORT   CLEAR     65  56  72 SE8       29.93S
N.P. DOWNTOWN    N/A     66  57  72 CALM        N/A
N.P. HILLCREST   N/A     64  56  76 S7          N/A
$$

...SOME OBSERVATIONS FROM AROUND THE REGION...

CITY           SKY/WX    TMP DP  RH WIND       PRES   REMARKS
DENVER         MOCLDY    72  45  37 W14       30.01R
LARAMIE        CLOUDY    62  45  53 SW7       30.19R
CHEYENNE       CLOUDY    72  44  36 W9        30.06S
SCOTTSBLUFF    MOCLDY    71  54  54 CALM      29.89F
RAPID CITY     MOCLDY    74  51  44 SW7       29.77F
PIERRE         PTCLDY    71  60  68 SE14      29.69F
WINNER         FAIR      74  55  51 S28G36    29.76F
SIOUX FALLS    PTCLDY    66  64  93 S10       29.90S
OMAHA          PTCLDY    66  65  96 CALM      29.95F
GRAND ISLAND   PTCLDY    66  64  93 S14       29.94F
KANSAS CITY    PTCLDY    72  70  93 SE7       29.96S
WICHITA        CLEAR     70  67  90 SE5       29.95S FOG
HAYS           CLEAR     63  54  72 S5        29.96F
LIBERAL        CLEAR     63  50  63 S5        29.97F
GOODLAND       CLEAR     64  50  60 S14       29.97F
$$



USA.gov is the U.S. government's official web portal to all federal, state and local government web resources and services.